GLOBALSTAR M091

Last updated on Mon Sep 21 2026 00:03:12 GMT+0000 (Coordinated Universal Time)

1 37741U 11033C 26263.47099442 -.00000091 00000+0 68788-4 0 9999 2 37741 52.0008 311.8331 0000484 116.5550 350.3028 12.62264879701318
UTC large
Height (km)
Speed (km/s)
/
Latitude / Longitude
Inclination (degrees)
Orbital Period (minutes)
Azimuth
Elevation
Range (km)
Doppler Factor

Next 0 passes for location: London (51.5072 / 0.1276)

No passes found over London.
GLOBALSTAR M091